KE0BZR Weather Reports


time (UTC)temp
C
wind
direction
speed
KPH
gust
KPH
rain 1hr
cm
rain 24hr
cm
rain mn
cm
humidity
%
barometer
mb
20240715180034 32 339 6.4 20.9 0.00 0.00 0.00 23 1004.0
20240715174531 32 108 3.2 22.5 0.00 0.00 0.00 23 1004.0
20240715173028 32 123 9.7 22.5 0.00 0.00 0.00 23 1004.0
20240715171536 33 355 11.3 25.7 0.00 0.00 0.00 21 1004.1
20240715170023 33 254 0.0 11.3 0.00 0.00 0.00 20 1004.2
20240715164520 33 229 6.4 17.7 0.00 0.00 0.00 19 1004.3
20240715163024 32 259 4.8 19.3 0.00 0.00 0.00 19 1004.3
20240715161512 32 229 4.8 22.5 0.00 0.00 0.00 20 1004.3
20240715160008 32 320 11.3 27.4 0.00 0.00 0.00 21 1004.3
20240715154505 31 262 14.5 32.2 0.00 0.00 0.00 22 1004.4
20240715153006 31 238 17.7 40.2 0.00 0.00 0.00 22 1004.5
20240715151607 31 245 9.7 19.3 0.00 0.00 0.00 22 1004.6
20240715150107 30 246 9.7 20.9 0.00 0.00 0.00 24 1004.6
20240715144606 30 242 12.9 27.4 0.00 0.00 0.00 25 1004.7
20240715143045 28 226 16.1 24.1 0.00 0.00 0.00 27 1004.8
20240715141541 27 253 8.0 12.9 0.00 0.00 0.00 30 1004.8
20240715140038 27 236 4.8 12.9 0.00 0.00 0.00 31 1004.9
20240715134539 27 258 4.8 11.3 0.00 0.00 0.00 33 1004.8
20240715133048 26 259 3.2 12.9 0.00 0.00 0.00 33 1004.9
20240715131536 26 247 0.0 8.0 0.00 0.00 0.00 36 1005.1
20240715130048 24 326 0.0 4.8 0.00 0.00 0.00 37 1005.2
20240715124528 23 296 1.6 9.7 0.00 0.00 0.00 38 1005.1
20240715123029 22 322 0.0 9.7 0.00 0.00 0.00 43 1005.0
20240715121524 22 318 0.0 3.2 0.00 0.00 0.00 42 1004.8
20240715120022 22 316 3.2 8.0 0.00 0.00 0.00 42 1004.6
20240715114519 21 243 0.0 9.7 0.00 0.00 0.00 44 1004.4
20240715113015 21 5 0.0 0.0 0.00 0.00 0.00 45 1004.7
20240715111512 21 232 0.0 0.0 0.00 0.00 0.00 44 1004.6
20240715110012 21 182 0.0 9.7 0.00 0.00 0.00 46 1004.6
20240715104510 21 248 1.6 6.4 0.00 0.00 0.00 44 1004.6
20240715103010 21 292 0.0 14.5 0.00 0.00 0.00 43 1004.8
20240715101512 21 282 1.6 4.8 0.00 0.00 0.00 45 1004.6
20240715100007 22 304 0.0 6.4 0.00 0.00 0.00 44 1004.4
20240715094504 22 313 0.0 3.2 0.00 0.00 0.00 42 1004.2
20240715093002 22 315 0.0 12.9 0.00 0.00 0.00 41 1004.3
20240715091501 24 185 0.0 0.0 0.00 0.00 0.00 38 1004.7
20240715090058 23 221 3.2 11.3 0.00 0.00 0.00 39 1004.6
20240715084557 22 291 0.0 0.0 0.00 0.00 0.00 45 1004.9
20240715083053 23 264 0.0 0.0 0.00 0.00 0.00 42 1005.1
20240715081554 23 268 0.0 6.4 0.00 0.00 0.00 41 1005.2
20240715080050 23 230 0.0 0.0 0.00 0.00 0.00 40 1005.2
20240715074547 24 164 0.0 0.0 0.00 0.00 0.00 36 1005.2
20240715073045 24 164 0.0 0.0 0.00 0.00 0.00 37 1005.5
20240715071543 25 159 0.0 0.0 0.00 0.00 0.00 36 1005.6
20240715070050 25 35 0.0 0.0 0.00 0.00 0.00 34 1005.7
20240715064541 26 32 0.0 0.0 0.00 0.00 0.00 32 1006.0
20240715063033 26 12 4.8 8.0 0.00 0.00 0.00 32 1006.1
20240715061537 27 189 1.6 8.0 0.00 0.00 0.00 30 1006.0
20240715060027 27 338 0.0 9.7 0.00 0.00 0.00 30 1006.5
20240715054532 27 242 0.0 14.5 0.00 0.00 0.00 30 1006.6
20240715053025 26 250 9.7 16.1 0.00 0.00 0.00 32 1006.6
20240715051542 24 290 9.7 19.3 0.00 0.00 0.00 38 1006.7
20240715050027 25 334 0.0 0.0 0.00 0.00 0.00 37 1006.0
20240715044524 26 188 0.0 0.0 0.00 0.00 0.00 33 1006.0
20240715043023 26 234 0.0 0.0 0.00 0.00 0.00 32 1005.9
20240715041532 26 227 0.0 0.0 0.00 0.00 0.00 33 1005.9
20240715040022 26 236 0.0 0.0 0.00 0.00 0.00 33 1006.0
20240715034521 26 213 0.0 9.7 0.00 0.00 0.00 34 1006.1
20240715033032 26 198 0.0 1.6 0.00 0.00 0.00 35 1005.9
20240715031520 26 138 0.0 0.0 0.00 0.00 0.00 34 1005.6
20240715030022 26 5 0.0 0.0 0.00 0.00 0.00 33 1005.1
20240715024520 27 5 0.0 0.0 0.00 0.00 0.00 32 1004.7
20240715023018 27 5 0.0 0.0 0.00 0.00 0.00 31 1004.6
20240715021518 28 5 0.0 12.9 0.00 0.00 0.00 30 1004.6
20240715020017 28 11 0.0 8.0 0.00 0.00 0.00 28 1004.5
20240715014518 28 336 3.2 17.7 0.00 0.00 0.00 27 1004.5
20240715013016 29 57 4.8 25.7 0.00 0.00 0.00 26 1004.5
20240715011520 30 16 6.4 25.7 0.00 0.00 0.00 25 1004.4
20240715010014 31 21 0.0 1.6 0.00 0.00 0.00 24 1004.2
20240715004513 32 313 0.0 0.0 0.00 0.00 0.00 24 1004.4
20240715003029 32 313 0.0 0.0 0.00 0.00 0.00 22 1004.4
20240715001515 32 267 0.0 9.7 0.00 0.00 0.00 21 1004.4
20240715000021 32 343 0.0 0.0 0.00 0.00 0.00 19 1004.3
20240714234511 31 312 0.0 16.1 0.00 0.00 0.00 19 1004.3
20240714233009 31 321 0.0 9.7 0.00 0.00 0.00 21 1004.3
20240714231507 31 315 3.2 22.5 0.00 0.00 0.00 21 1004.6
20240714230007 31 275 14.5 25.7 0.00 0.00 0.00 20 1004.5
20240714224511 32 261 3.2 16.1 0.00 0.00 0.00 19 1004.5
20240714223006 32 221 0.0 12.9 0.00 0.00 0.00 19 1004.5
20240714221512 32 202 8.0 20.9 0.00 0.00 0.00 19 1004.5
20240714220002 32 226 14.5 33.8 0.00 0.00 0.00 19 1004.8
20240714214501 32 190 17.7 35.4 0.00 0.00 0.00 19 1005.0
20240714213103 34 217 25.7 40.2 0.00 0.00 0.00 18 1005.0
20240714211607 34 172 12.9 33.8 0.00 0.00 0.00 16 1004.9
20240714210058 34 213 4.8 25.7 0.00 0.00 0.00 17 1004.9
20240714204602 33 222 12.9 24.1 0.00 0.00 0.00 18 1005.0
20240714203056 33 208 4.8 14.5 0.00 0.00 0.00 18 1005.1
20240714201610 33 190 0.0 1.6 0.00 0.00 0.00 17 1005.1
20240714200055 34 144 1.6 20.9 0.00 0.00 0.00 17 1005.1
20240714194601 33 182 0.0 17.7 0.00 0.00 0.00 16 1005.2
20240714193052 33 204 1.6 27.4 0.00 0.00 0.00 17 1005.8
20240714191552 33 224 9.7 25.7 0.00 0.00 0.00 16 1005.6
20240714190051 35 178 3.2 12.9 0.00 0.00 0.00 14 1005.5
20240714184550 36 146 0.0 9.7 0.00 0.00 0.00 14 1005.6
20240714183100 35 82 1.6 14.5 0.00 0.00 0.00 15 1005.4
20240714181547 34 89 0.0 9.7 0.00 0.00 0.00 18 1005.6